Location: Serin Observatory
(40.5200°N, 74.4500°W)
Time: 10:10:39
(UTC+00:00)

SL-8 R/B - Visible Passes

Search period start: 14 February 2016 00:00
Search period end: 24 February 2016 00:00
Orbit: 657 x 668 km, 48.4° (Epoch: 13 February)

Date Brightness Start Highest point End Pass type
(mag) Time Alt. Az. Time Alt. Az. Time Alt. Az.
18 Feb 6.4 11:05:52 10° S 11:09:21 20° SE 11:12:51 10° E visible
20 Feb 6.1 10:25:38 10° S 10:29:16 21° SE 10:32:55 10° E visible
21 Feb 4.6 10:55:32 10° SW 11:00:10 49° SE 11:04:51 10° ENE visible
22 Feb 5.8 09:45:34 11° S 09:49:10 23° SE 09:52:58 10° E visible
23 Feb 4.4 10:16:13 15° SW 10:20:06 53° SE 10:24:49 10° ENE visible
